Zurück zum Katalog

THOR ABLESTAR DEB

AktivLEO
NORAD 354·DEBRIS·🇺🇸 United States

Gestartet Jun 29, 1961 von Cape Canaveral Space Force Station

Loading…

Nächste Überflüge (nächste 24 Stunden)

TLE

AktuellSource: Space-Track

Epoche: Sep 14, 2026, 10:10 UTC

1 00354U 61015DU  26257.42397142  .00000160  00000-0  32862-3 0  9990
2 00354  67.0647 259.1642 0172028 247.7467 185.2191 13.49482660489911

Verfolge THOR ABLESTAR DEB in Echtzeit mit AllMySat

Download on the App Store